Location: Saddleback Butte
(34.6776°N, 117.8050°W)
Time: 21:23:18
(UTC-07:00)

Iridium 35 - Visible Passes

Search period start: 01 September 2014 00:00
Search period end: 11 September 2014 00:00
Orbit: 776 x 779 km, 86.4° (Epoch: 01 September)

Date Brightness Start Highest point End Pass type
(mag) Time Alt. Az. Time Alt. Az. Time Alt. Az.
01 Sep 7.5 02:44:10 15° ENE 02:44:10 15° ENE 02:46:46 10° NE visible
01 Sep 5.4 04:24:40 47° WNW 04:24:40 47° WNW 04:29:06 10° N visible
02 Sep 5.5 03:51:40 56° N 03:51:40 56° N 03:55:44 10° N visible
03 Sep 6.5 03:18:38 34° NE 03:18:38 34° NE 03:21:59 10° NNE visible
03 Sep 6.7 04:59:08 16° WNW 04:59:08 16° WNW 05:01:23 10° NW visible
04 Sep 7.4 02:45:35 19° NE 02:45:35 19° NE 02:47:44 10° NNE visible
04 Sep 6.3 04:26:05 26° NW 04:26:05 26° NW 04:28:54 10° NNW visible
05 Sep 6.3 03:53:01 31° NNW 03:53:01 31° NNW 03:55:46 10° N visible
06 Sep 6.8 03:19:55 27° NNE 03:19:55 27° NNE 03:22:15 10° N visible
07 Sep 7.5 02:46:49 18° NNE 02:46:49 18° NNE 02:48:19 10° NNE visible
07 Sep 7.0 04:27:18 15° NW 04:27:18 15° NW 04:28:27 10° NNW visible
08 Sep 8.0 02:13:41 10° NE 02:13:41 10° NE 02:13:46 10° NE visible
08 Sep 7.0 03:54:11 19° NNW 03:54:11 19° NNW 03:55:40 10° NNW visible
09 Sep 7.2 03:21:02 18° N 03:21:02 18° N 03:22:22 10° N visible
10 Sep 7.7 02:47:53 15° NNE 02:47:53 15° NNE 02:48:41 10° NNE visible
